sat.trackr.live / text

‹ back to catalog

STARLINK-3641

NORAD 51788 · 2022-017W

PAYLOAD ACTIVE UNKNOWN

§ Identity

Operator
Country
US
Launch date
2022-02-25
Launch site
AFWTR
Launch vehicle
Mass (kg)
RCS (m²)

Purposes: comms

External: N2YO · Heavens-Above · Gunter

§ Orbital elements

Epoch: 2026-09-19T07:16:13.558080Z

Period
93.85 min
Inclination
53.1597°
Eccentricity
0.0001367
Mean motion
15.34388203 rev/d
Perigee alt
461.8 km
Apogee alt
463.7 km
Semi-major
6,840.9 km
B*
3.7856e-6
RAAN
184.9705°
Arg perigee
90.2453°
Mean anomaly
269.8707°
Rev number
25,335

§ Raw data

STARLINK-36411 51788U 22017W   26262.30293470 -.00000248  00000+0  37856-5 0  99952 51788  53.1597 184.9705 0001367  90.2453 269.8707 15.34388203253359

JSON: /api/v1/satellites/51788 · /tle

For live sub-satellite position, see the globe view (requires WebGL).

§ Visibility from observer

Set your observer location to see the next 7 days of passes ≥ 10°. The values pass through the URL so the page stays shareable.

No JS? Fill the form by hand. The geolocation button needs JavaScript.